星链-5541 (STARLINK-5541 )

导读 | 豆包AI

STARLINK-5541是美国太空探索技术公司(SpaceX)星链星座(Starlink)项目中的低轨通信卫星,于2023年5月10日发射入轨。作为星链组网卫星,它运行在近地轨道,采用新一代卫星技术,承担全球高速卫星互联网接入服务,为偏远地区网络覆盖、空中海事等场景提供宽带连接,推动星链星座规模化部署,进一步完善全球卫星互联网通信网络布局。

基本信息
目录编号:
56475
目录名称:
STARLINK-5541
国际标识:
2023-064AD
轨道中心:
EARTH
卫星名称:
星链-5541
卫星全名:
星链-5541 (STARLINK-5541 )
卫星状态:
在轨 (已飞行1086 天)
发射日期:
2023-05-10 UTC
国别 :
美国 (US)
星等 :
--
轨道信息
数据来源 国际轨道数据
星历时间: 2026-04-30T07:51:28+0800
13小时前
查看轨道信息
半长轴: 6950.173km
偏心率: 0.0002552
轨道倾角: 70.002°
近地点辐角 281.909°
升交点赤经 355.122°
平近点角 78.178°
近地点: 570.262km
远地点: 573.81km
周期: 96.107分钟
每日圈数: 14.983367
详细信息
固有亮度:
5
最大亮度:
2.5
卫星平台:
Starlink v1.5
覆盖范围:
全球
运营商:
太空探索技术公司
运营商所在国:
美国
制造商(研发单位):
太空探索技术公司
制造商所在国:
美国
使用方式:
暂无
卫星简介
星链(Starlink)计划是由太空探索技术公司(SpaceX)提出的一个巨型低轨卫星互联网星座项目,计划在2019年至2024年间在太空搭建由约1.2万颗卫星组成的“星链”网络,其中1584颗将部署在地球上空550千米处的近地轨道,并从2020年开始工作。该卫星仍在工作。
2D轨道图
3D轨道图
轨道高度分析图
轨道倾角分析图
轨道综合分析图
查看轨道综合分析图